Simultaneous Nadir Overpasses (SNOs) Predictions

Prediction of SNOs between NPP and TERRA Satellite Orbit:

Table of predicted SNOs for the next 14.0 days since TLE Epoch: 4/24/2016
Index Date (NPP) Time (NPP) Lat,Lon (NPP) SZA (NPP ) Date (TERRA) Time (TERRA) Lat,Lon (TERRA) SZA (TERRA ) Distance(km) Time Diff (sec)
1 04/24/2016 09:49:47 69.26, 30.33 56.09 04/24/2016 09:50:56 69.15, 32.00 55.97 66.86 69
2 04/24/2016 10:40:15 -68.42,-161.22 124.77 04/24/2016 10:40:37 -68.43,-161.26 124.76 2.30 22
3 04/24/2016 11:30:59 68.30, 6.25 55.10 04/24/2016 11:30:04 68.32, 6.24 55.12 2.25 55
4 04/27/2016 02:06:29 68.52, 147.10 54.48 04/27/2016 02:07:40 68.52, 147.07 54.47 1.52 71
5 04/27/2016 02:57:11 -68.43, -45.46 125.63 04/27/2016 02:57:10 -68.42, -45.42 125.64 2.58 1
6 04/27/2016 03:47:52 68.15, 122.21 54.08 04/27/2016 03:46:39 68.19, 121.95 54.12 11.41 73
7 04/29/2016 18:23:24 68.48, -97.08 53.60 04/29/2016 18:24:13 68.49, -97.09 53.61 1.35 49
8 04/29/2016 19:14:06 -68.39, 70.36 126.50 04/29/2016 19:13:43 -68.40, 70.42 126.50 2.63 23
9 04/29/2016 20:04:33 67.35,-121.05 52.45 04/29/2016 20:03:26 67.38,-123.11 52.48 88.12 67
10 05/02/2016 10:40:18 68.44, 18.74 52.76 05/02/2016 10:40:45 68.46, 18.74 52.77 2.19 27
11 05/02/2016 11:30:59 -68.30,-173.76 127.40 05/02/2016 11:30:16 -68.31,-173.82 127.39 2.65 43
12 05/05/2016 02:06:36 -68.90, -33.41 127.55 05/05/2016 02:07:47 -68.77, -32.67 127.69 33.28 71
13 05/05/2016 02:57:13 68.41, 134.55
